When you browse on this site, cookies collect data to enhance your experience and personalize the content and advertising you see.
Visit our Privacy Policy to learn more. By continuing to use the site, you agree to this use of cookies and data.
  • In Österreich
  • Länderverzeichnis
  • Für 7 Tage
  • Wassertemperatur
  • Wetterkarte
  • News
  • Widgets
  • user-avatar
    Anmelden

    Stündliche Wetter Oyem

    Heute, 26 Januar, Sonntag

    Zeit Temperatur Niederschläge Wind Luftdruck Luftfeuchtigkeit
    00:00 +20°C° 0 mm 0 m/S 703 mmHg 39%
    01:00 +20°C° 0 mm 0 m/S 702 mmHg 40%
    02:00 +19°C° 0 mm 0 m/S 702 mmHg 44%
    03:00 +18°C° 0 mm 0 m/S 702 mmHg 48%
    04:00 +20°C° 0 mm 1 m/S 702 mmHg 52%
    05:00 +20°C° 0 mm 1 m/S 703 mmHg 55%
    06:00 +20°C° 0 mm 1 m/S 703 mmHg 57%
    07:00 +20°C° 0 mm 1 m/S 704 mmHg 60%
    08:00 +23°C° 0 mm 1 m/S 704 mmHg 50%
    09:00 +26°C° 0 mm 1 m/S 705 mmHg 41%
    10:00 +29°C° 0 mm 1 m/S 706 mmHg 32%
    11:00 +31°C° 0 mm 1 m/S 705 mmHg 27%
    12:00 +33°C° 0 mm 1 m/S 705 mmHg 22%
    13:00 +35°C° 0 mm 1 m/S 704 mmHg 18%
    14:00 +36°C° 0 mm 1 m/S 704 mmHg 17%
    15:00 +34°C° 0 mm 0 m/S 703 mmHg 17%
    16:00 +34°C° 0 mm 0 m/S 702 mmHg 17%
    17:00 +31°C° 0 mm 0 m/S 702 mmHg 22%
    18:00 +28°C° 0 mm 0 m/S 702 mmHg 26%
    19:00 +25°C° 0 mm 0 m/S 702 mmHg 31%
    20:00 +26°C° 0 mm 1 m/S 702 mmHg 34%
    21:00 +25°C° 0 mm 1 m/S 703 mmHg 37%
    22:00 +24°C° 0 mm 1 m/S 703 mmHg 40%
    23:00 +23°C° 0 mm 1 m/S 703 mmHg 52%

    Morgen, 27 Januar, Montag

    Zeit Temperatur Niederschläge Wind Luftdruck Luftfeuchtigkeit
    00:00 +22°C° 0 mm 1 m/S 703 mmHg 63%
    01:00 +21°C° 0 mm 1 m/S 703 mmHg 75%
    02:00 +22°C° 0 mm 1 m/S 703 mmHg 81%
    03:00 +22°C° 0 mm 1 m/S 703 mmHg 87%
    04:00 +22°C° 0 mm 1 m/S 703 mmHg 92%
    05:00 +22°C° 0 mm 1 m/S 703 mmHg 91%
    06:00 +23°C° 0 mm 1 m/S 704 mmHg 90%
    07:00 +21°C° 0 mm 0 m/S 704 mmHg 88%
    08:00 +23°C° 0 mm 0 m/S 705 mmHg 80%
    09:00 +25°C° 0 mm 0 m/S 705 mmHg 72%
    10:00 +26°C° 0 mm 0 m/S 706 mmHg 64%
    11:00 +31°C° 0 mm 1 m/S 705 mmHg 53%
    12:00 +33°C° 0 mm 1 m/S 705 mmHg 42%
    13:00 +36°C° 0 mm 1 m/S 704 mmHg 31%
    14:00 +35°C° 0 mm 1 m/S 703 mmHg 29%
    15:00 +35°C° 0 mm 1 m/S 703 mmHg 28%
    16:00 +35°C° 0 mm 1 m/S 702 mmHg 27%
    17:00 +33°C° 0 mm 1 m/S 702 mmHg 32%
    18:00 +30°C° 0 mm 1 m/S 702 mmHg 36%
    19:00 +26°C° 0 mm 0 m/S 702 mmHg 41%
    20:00 +27°C° 0 mm 1 m/S 702 mmHg 51%
    21:00 +26°C° 0 mm 1 m/S 703 mmHg 61%
    22:00 +25°C° 0 mm 2 m/S 704 mmHg 71%
    23:00 +25°C° 0 mm 1 m/S 703 mmHg 77%

    übermorgen, 28 Januar, Dienstag

    Zeit Temperatur Niederschläge Wind Luftdruck Luftfeuchtigkeit
    00:00 +24°C° 0 mm 1 m/S 703 mmHg 84%
    01:00 +23°C° 0 mm 1 m/S 703 mmHg 91%
    02:00 +23°C° 0 mm 1 m/S 703 mmHg 91%
    03:00 +23°C° 0 mm 1 m/S 703 mmHg 90%
    04:00 +23°C° 0 mm 1 m/S 703 mmHg 90%
    05:00 +23°C° 0 mm 1 m/S 703 mmHg 88%
    06:00 +24°C° 0 mm 1 m/S 704 mmHg 86%
    07:00 +24°C° 0 mm 1 m/S 704 mmHg 84%
    08:00 +25°C° 0 mm 1 m/S 705 mmHg 78%
    09:00 +27°C° 0 mm 1 m/S 705 mmHg 72%
    10:00 +28°C° 0 mm 1 m/S 705 mmHg 66%
    11:00 +30°C° 0.1 mm 1 m/S 705 mmHg 57%
    12:00 +32°C° 0.1 mm 1 m/S 705 mmHg 49%
    13:00 +34°C° 0.1 mm 1 m/S 704 mmHg 40%
    14:00 +34°C° 0 mm 1 m/S 703 mmHg 40%
    15:00 +34°C° 0 mm 1 m/S 703 mmHg 40%
    16:00 +33°C° 0 mm 1 m/S 702 mmHg 40%
    17:00 +31°C° 0.1 mm 1 m/S 702 mmHg 49%
    18:00 +29°C° 0.1 mm 2 m/S 702 mmHg 58%
    19:00 +27°C° 0.1 mm 2 m/S 702 mmHg 68%
    20:00 +26°C° 0 mm 2 m/S 702 mmHg 74%
    21:00 +25°C° 0 mm 1 m/S 703 mmHg 80%
    22:00 +24°C° 0 mm 1 m/S 703 mmHg 86%
    23:00 +24°C° 0 mm 1 m/S 703 mmHg 88%

    29 Januar, Mittwoch

    Zeit Temperatur Niederschläge Wind Luftdruck Luftfeuchtigkeit
    00:00 +23°C° 0 mm 1 m/S 703 mmHg 90%
    01:00 +23°C° 0 mm 1 m/S 703 mmHg 92%
    02:00 +22°C° 0 mm 1 m/S 702 mmHg 94%
    03:00 +22°C° 0 mm 1 m/S 702 mmHg 96%
    04:00 +20°C° 0 mm 0 m/S 702 mmHg 98%
    05:00 +22°C° 0 mm 1 m/S 702 mmHg 96%
    06:00 +22°C° 0 mm 1 m/S 703 mmHg 93%
    07:00 +23°C° 0 mm 1 m/S 704 mmHg 91%
    08:00 +25°C° 0 mm 1 m/S 704 mmHg 80%
    09:00 +27°C° 0 mm 1 m/S 705 mmHg 69%
    10:00 +29°C° 0 mm 1 m/S 705 mmHg 58%
    11:00 +32°C° 0 mm 1 m/S 705 mmHg 49%
    12:00 +34°C° 0 mm 1 m/S 704 mmHg 40%
    13:00 +36°C° 0 mm 1 m/S 704 mmHg 31%
    14:00 +36°C° 0 mm 1 m/S 703 mmHg 30%
    15:00 +36°C° 0 mm 1 m/S 702 mmHg 29%
    16:00 +36°C° 0 mm 1 m/S 702 mmHg 27%
    17:00 +33°C° 0 mm 1 m/S 702 mmHg 34%
    18:00 +31°C° 0 mm 1 m/S 702 mmHg 41%
    19:00 +29°C° 0 mm 1 m/S 702 mmHg 48%
    20:00 +27°C° 0 mm 1 m/S 702 mmHg 60%
    21:00 +26°C° 0 mm 1 m/S 703 mmHg 72%
    22:00 +25°C° 0 mm 1 m/S 703 mmHg 84%
    23:00 +24°C° 0 mm 1 m/S 703 mmHg 87%

    30 Januar, Donnerstag

    Zeit Temperatur Niederschläge Wind Luftdruck Luftfeuchtigkeit
    00:00 +24°C° 0 mm 1 m/S 703 mmHg 89%
    01:00 +23°C° 0 mm 1 m/S 703 mmHg 92%
    02:00 +23°C° 0 mm 1 m/S 702 mmHg 93%
    03:00 +23°C° 0 mm 1 m/S 702 mmHg 94%
    04:00 +22°C° 0 mm 1 m/S 702 mmHg 95%
    05:00 +22°C° 0 mm 1 m/S 703 mmHg 95%
    06:00 +23°C° 0 mm 1 m/S 703 mmHg 94%
    07:00 +23°C° 0 mm 1 m/S 704 mmHg 93%
    08:00 +26°C° 0 mm 1 m/S 704 mmHg 79%
    09:00 +28°C° 0 mm 1 m/S 705 mmHg 65%
    10:00 +31°C° 0 mm 1 m/S 705 mmHg 52%
    11:00 +33°C° 0 mm 1 m/S 705 mmHg 43%
    12:00 +35°C° 0 mm 1 m/S 704 mmHg 34%
    13:00 +37°C° 0 mm 1 m/S 704 mmHg 26%
    14:00 +37°C° 0 mm 1 m/S 703 mmHg 25%
    15:00 +37°C° 0 mm 1 m/S 703 mmHg 23%
    16:00 +37°C° 0 mm 1 m/S 702 mmHg 22%
    17:00 +34°C° 0 mm 1 m/S 702 mmHg 32%
    18:00 +31°C° 0 mm 1 m/S 702 mmHg 42%
    19:00 +29°C° 0 mm 2 m/S 702 mmHg 51%
    20:00 +27°C° 0 mm 1 m/S 702 mmHg 60%
    21:00 +26°C° 0 mm 1 m/S 703 mmHg 69%
    22:00 +25°C° 0 mm 1 m/S 704 mmHg 78%
    23:00 +25°C° 0 mm 1 m/S 704 mmHg 81%

    31 Januar, Freitag

    Zeit Temperatur Niederschläge Wind Luftdruck Luftfeuchtigkeit
    00:00 +24°C° 0 mm 1 m/S 704 mmHg 85%
    01:00 +24°C° 0 mm 2 m/S 704 mmHg 89%
    02:00 +24°C° 0 mm 2 m/S 703 mmHg 89%
    03:00 +23°C° 0 mm 2 m/S 703 mmHg 89%
    04:00 +23°C° 0 mm 1 m/S 702 mmHg 89%
    05:00 +23°C° 0 mm 1 m/S 703 mmHg 89%
    06:00 +23°C° 0 mm 1 m/S 703 mmHg 90%
    07:00 +21°C° 0 mm 0 m/S 704 mmHg 91%
    08:00 +25°C° 0.1 mm 1 m/S 704 mmHg 81%
    09:00 +27°C° 0.1 mm 1 m/S 705 mmHg 71%
    10:00 +29°C° 0.1 mm 1 m/S 706 mmHg 61%
    11:00 +31°C° 0.2 mm 1 m/S 705 mmHg 55%
    12:00 +32°C° 0.2 mm 1 m/S 705 mmHg 49%
    13:00 +34°C° 0.2 mm 1 m/S 705 mmHg 43%
    14:00 +33°C° 0.2 mm 1 m/S 704 mmHg 44%
    15:00 +32°C° 0.2 mm 1 m/S 703 mmHg 45%
    16:00 +32°C° 0.2 mm 1 m/S 703 mmHg 46%
    17:00 +29°C° 0.5 mm 1 m/S 703 mmHg 58%
    18:00 +27°C° 0.5 mm 1 m/S 703 mmHg 70%
    19:00 +25°C° 0.5 mm 2 m/S 703 mmHg 81%
    20:00 +24°C° 0.2 mm 1 m/S 703 mmHg 83%
    21:00 +24°C° 0.2 mm 1 m/S 704 mmHg 85%
    22:00 +23°C° 0.2 mm 1 m/S 704 mmHg 88%
    23:00 +23°C° 0 mm 1 m/S 704 mmHg 89%
    Mehr zeigen